Location: Unspecified
(43.4354°N, 0.0000°E)
Time: 17:17:47
(UTC+00:00)

Vanguard 2 Rocket - Pass Details

Date: 20 June 2019
Orbit: 554 x 3326 km, 32.9° (Epoch: 21 July)

Event Time Altitude Azimuth Distance (km) Brightness Sun altitude
Rises 06:08:38 0° 272° (W) 6,987 10.8 17.1°
Reaches altitude 10° 06:17:11 10° 252° (WSW) 6,235 10.6 18.6°
Maximum altitude 06:24:58 14° 228° (SW) 5,954 10.6 20.0°
Drops below altitude 10° 06:32:43 10° 205° (SSW) 6,111 10.8 21.3°
Sets 06:41:07 0° 183° (S) 6,734 11.2 22.8°
